Simultaneous Nadir Overpasses (SNOs) Predictions

Prediction of SNOs between GOES-17 and NOAA-19 Satellite Orbit:

Table of predicted SNOs for the next 14.0 days since TLE Epoch: 9/17/2022
Index Date Time (GOES-17) GOES-17 Lat,Lon NOAA-19 Lat,Lon Distance(km) Time Diff (sec)
1 09/17/2022 05:10:43 0.03,-137.29 -0.10,-137.87 65.93 80
2 09/18/2022 05:01:30 0.03,-137.28 0.57,-134.98 263.76 80
3 09/20/2022 17:19:22 -0.04,-137.27 0.54,-139.84 293.84 80
4 09/21/2022 17:10:09 -0.04,-137.25 -0.13,-136.95 35.45 80
5 09/22/2022 16:58:16 -0.04,-137.24 -0.75,-134.04 364.44 80
6 09/25/2022 05:16:06 0.04,-137.19 -0.35,-138.90 195.32 80
7 09/26/2022 05:06:53 0.04,-137.17 0.32,-136.01 133.45 80
8 09/27/2022 04:55:01 0.04,-137.15 1.00,-133.11 462.03 80
9 09/28/2022 17:24:44 -0.04,-137.13 0.83,-140.87 426.54 80
10 09/29/2022 17:12:52 -0.04,-137.11 0.15,-137.97 98.51 80
11 09/30/2022 17:03:38 -0.03,-137.08 -0.48,-135.07 229.30 80
